Location: Unspecified
(0.0000°N, 0.0000°E)
Time: 08:20:26
(UTC+00:00)

Vanguard 2 - Pass Details

Date: 21 October 2021
Orbit: 554 x 2936 km, 32.9° (Epoch: 06 December)

Event Time Altitude Azimuth Distance (km) Brightness Sun altitude
Rises 09:20:41 0° 330° (NNW) 2,706 10.1 52.6°
Reaches altitude 10° 09:23:16 10° 348° (NNW) 1,837 9.4 53.2°
Maximum altitude 09:26:17 20° 38° (NE) 1,409 9.3 54.0°
Drops below altitude 10° 09:29:49 10° 86° (E) 2,177 10.6 54.8°
Sets 09:33:13 0° 102° (ESE) 3,404 11.4 55.6°
